Aérodrome :
LOGIN :

S'inscrire | Disclaimer

   EN    FR    IT 

 










Légende :    VFR   VFR Marginal   IFR   IFR Intensif   IFR Très Intensif
Visi : 
Plafond : 
>= 8 km
>= 3000ft
5 à 8 km
1000 à 3000 ft
1500m à 5 km
500 à 1000 ft
800 à 1500m
200 à 500 ft
< 800m
< 200 ft
Symboles :   Orages  Brouillard  Fortes neiges  Fortes précipitations  Vent > 20 kt
SIGMETs :   Divers  Orages  Givrage  Turbulence  Onde Orograph.  Cendres Volcan.







- Altitude de l'aérodrome : 355 ft
- Code IATA : VBS


LIPO - Montichiari - Brescia

DERNIER METAR :
  • 190350Z 01004KT 7000 NSC 04/03 Q1014

METARs EXPIRÉS :
  • 190250Z 02002KT CAVOK 04/03 Q1014
  • 190150Z 36002KT CAVOK 03/02 Q1015

TAF TAF LIPO
Valide du 19 à 00h jusqu'au 20 à 00h UTC


182300Z 1900/1924 VRB05KT 5000 BR NSC
TEMPO 1902/1907 1200 BCFG
BECMG 1907/1910 8000
BECMG 1920/1922 3500 BR
Pas de NOTAMs connus pour ce terrain.



MET'MAP, la Météo Aéronautique d'un coup d'oeil ! - Copyright ORBIFLY Décembre 2007 - Disclaimer

ORBIFLY MET'MAP TEAM :

Programmation & Développement : Alexandra Zaïnal
Conception & Développement : Baudouin d'Aumeries
Co-Programmation & Développement : Marc-Olivier Méhu
Soutien technique & logistique : Manuel Goepfert

Contact : metmap@orbifly.com




SOURCES & CREDITS :

   NOAA